Weather in Chelny

Russia / Khabarovsk Krai     48°52′53″N   136°00′48″E
temp.,
°C
wind,
m/s
gust,
m/s
humid.,
%
clouds,
%
prec.,
mm/h
press.,
hPa
HPBL,
m
24 july, sat
sat2401:00+25ssw367424 0.0 1006108
04:00+24ssw3781100 0.0 1006120
07:00+25s3678100 0.0 1007160
10:00+32ssw4554100 0.0 1007675
13:00+35sw574164 0.0 10071716
16:00+36sw573984 0.0 10052215
19:00+34wsw34483 0.0 1005254
22:00+28wsw236739 0.0 100667
25 july, sun
sun2501:00+24s5117447 0.1 1006211
04:00+22s37795 0.1 1006119
07:00+25s25778 0.0 1006153
10:00+32ssw474755 0.0 1005753
13:00+36sw573898 0.0 10041675
16:00+35wsw573834 0.0 10031567
19:00+32wnw475393 0.0 1003377
22:00+25w2380100 1.3 100437
26 july, mon
mon2601:00+23ssw2289100 3.4 100416
04:00+23sse3594100 5.1 100499
07:00+23s3693100 0.4 1004172
10:00+29ssw346368 0.4 1004536
13:00+31sw3554100 0.0 10041039
16:00+34sw4541100 0.0 10031623
19:00+31sw2255100 0.0 100231
22:00+26n226924 0.0 100335
27 july, tue
tue2701:00+24e0179100 0.1 100211
04:00+21nne389795 0.4 1003208
07:00+22ese259497 0.3 1003143
10:00+29sw246262 0.3 1003591
13:00+34wsw4643100 0.0 10021473
16:00+35wsw4736100 0.0 10001979
19:00+32wnw4650100 0.0 1000434
22:00+26nne3472100 0.0 1001120
28 july, wed
wed2801:00+21nne3591100 0.0 1001121
04:00+19n359897 0.0 1002127
07:00+21nne468972 0.0 1002233
10:00+27nne33675 0.0 1001579
13:00+31nne33536 0.0 10001214
16:00+30n3363100 0.4 999530
19:00+26ene357675 0.2 999196
22:00+23ene228997 0.5 99926